Montgomery, NY

7:22 PM EDT on July 25, 2017 (GMT -0400)
Orange County

Weather History for KMGJ - January, 2014

Change the Weather History Date:

Sunday, January 12, 2014

  Actual Average (KSWF) Record (KSWF)
Temperature  
Mean Temperature 41 °F -  
Max Temperature 50 °F 31 °F 63 °F (1975)
Min Temperature 28 °F 16 °F -16 °F (1981)
Degree Days  
Heating Degree Days 24    
Moisture  
Dew Point 28 °F    
Average Humidity 61    
Maximum Humidity 81    
Minimum Humidity 51    
Precipitation  
Precipitation 0.00 in - - ()
Sea Level Pressure  
Sea Level Pressure 29.76 in    
Wind  
Wind Speed 10 mph (WNW)    
Max Wind Speed 20 mph    
Max Gust Speed 28 mph    
Visibility 10 miles    
Events      
Averages and records for this station are not official NWS values.
T = Trace of Precipitation, MM = Missing Value Source: NWS Daily Summary

Daily Weather History Graph

Daily Weather History Graph

Search for Another Location

Airport or City:

Trip Planner

Search our weather history database for the weather conditions in past years. The results will help you decide how hot, cold, wet, or windy it might be!

Date:

Astronomy

Jan. 12, 2014 Rise Set
Actual Time 7:22 AM EST 4:48 PM EST
Civil Twilight 6:51 AM EST 5:19 PM EST
Nautical Twilight 6:17 AM EST 5:53 PM EST
Astronomical Twilight 5:43 AM EST 6:27 PM EST
Moon 2:14 PM EST (1/12) 4:18 AM EST (1/12)
Length of Visible Light 10h 27m
Length of Day
9h 26m
Waxing Gibbous, 89% of the Moon is Illuminated
Jan 12
Waxing Gibbous
Jan 15
Full
Jan 24
Last Quarter
Jan 30
New
Feb 6
First Quarter

Hourly Weather History & Observations

Time (EST) Temp. Windchill Dew Point Humidity Pressure Visibility Wind Dir Wind Speed Gust Speed Precip Events Conditions
12:54 AM 50.0 °F - 39.9 °F 68% 29.39 in 10.0 mi WSW 10.4 mph - N/A   Overcast
1:54 AM 48.9 °F - 37.9 °F 66% 29.42 in 10.0 mi WNW 6.9 mph - N/A   Mostly Cloudy
2:54 AM 45.0 °F 40.1 °F 34.0 °F 65% 29.47 in 10.0 mi West 9.2 mph - 0.00 in   Overcast
3:54 AM 44.1 °F 38.1 °F 30.0 °F 58% 29.50 in 10.0 mi WNW 11.5 mph 17.3 mph N/A   Mostly Cloudy
4:54 AM 41.0 °F 37.1 °F 30.0 °F 65% 29.52 in 10.0 mi West 5.8 mph - N/A   Mostly Cloudy
5:54 AM 42.1 °F 36.6 °F 28.9 °F 60% 29.54 in 10.0 mi WNW 9.2 mph 21.9 mph N/A   Overcast
6:54 AM 41.0 °F 33.5 °F 28.0 °F 60% 29.59 in 10.0 mi WNW 13.8 mph 21.9 mph N/A   Overcast
7:54 AM 41.0 °F 32.8 °F 28.0 °F 60% 29.63 in 10.0 mi WNW 16.1 mph 24.2 mph N/A   Overcast
8:54 AM 41.0 °F 33.9 °F 27.0 °F 57% 29.68 in 10.0 mi NW 12.7 mph 20.7 mph N/A   Overcast
9:54 AM 42.1 °F 34.5 °F 26.1 °F 53% 29.73 in 10.0 mi WNW 15.0 mph 20.7 mph N/A   Overcast
10:54 AM 42.1 °F 37.7 °F 26.1 °F 53% 29.74 in 10.0 mi Variable 6.9 mph 26.5 mph N/A   Overcast
11:54 AM 42.1 °F 33.3 °F 25.0 °F 51% 29.75 in 10.0 mi West 19.6 mph 24.2 mph N/A   Overcast
12:54 PM 42.1 °F 35.2 °F 26.1 °F 53% 29.76 in 10.0 mi WNW 12.7 mph 27.6 mph N/A   Overcast
1:54 PM 42.1 °F 34.5 °F 25.0 °F 51% 29.79 in 10.0 mi NW 15.0 mph 21.9 mph N/A   Mostly Cloudy
2:54 PM 42.1 °F 35.2 °F 25.0 °F 51% 29.83 in 10.0 mi WNW 12.7 mph 21.9 mph N/A   Overcast
3:54 PM 41.0 °F 35.2 °F 26.1 °F 55% 29.89 in 10.0 mi WNW 9.2 mph - N/A   Overcast
4:54 PM 39.9 °F 34.5 °F 25.0 °F 55% 29.92 in 10.0 mi WNW 8.1 mph - N/A   Overcast
5:54 PM 39.0 °F 34.8 °F 25.0 °F 57% 29.95 in 10.0 mi West 5.8 mph - N/A   Overcast
6:54 PM 39.0 °F 35.7 °F 26.1 °F 60% 29.97 in 10.0 mi WNW 4.6 mph - N/A   Overcast
7:54 PM 37.0 °F 31.6 °F 26.1 °F 65% 29.99 in 10.0 mi WNW 6.9 mph - N/A   Partly Cloudy
8:54 PM 35.1 °F 29.3 °F 25.0 °F 67% 30.00 in 10.0 mi West 6.9 mph - N/A   Clear
9:54 PM 33.1 °F 27.7 °F 25.0 °F 72% 30.02 in 10.0 mi South 5.8 mph - N/A   Clear
10:54 PM 32.0 °F 25.6 °F 25.0 °F 75% 30.04 in 10.0 mi WSW 6.9 mph - N/A   Clear
11:54 PM 28.0 °F 21.7 °F 23.0 °F 81% 30.05 in 10.0 mi SW 5.8 mph - N/A   Clear